Vorticity
5 5 5 4 4 6 8 11 11 12 11 11 10 10 10 11 10 10 9 9 10 10 9 9 8 7 3 5 6 9 5 4 5 3 4 4 6 5 5 5 4 4 5
5 4 3 6 12 15 14 12 11 10 10 10 10 10 11 12 11 11 11 11 10 9 9 9 8 8 7 7 0 4 5 8 5 5 4 5 5 6 5 5 5 4 4
3 5 11 15 13 10 10 10 9 10 10 11 12 11 11 11 12 14 14 14 14 15 14 13 12 12 10 9 8 9 4 -1 5 7 6 5 5 5 7 4 4 4 4
10 14 12 11 10 9 10 12 14 14 14 13 14 15 18 18 17 15 13 10 11 12 14 17 18 19 17 13 11 12 9 11 4 10 7 7 5 6 4 5 6 4 4
11 11 10 10 11 12 15 17 16 22 25 21 17 11 9 9 9 9 10 11 11 11 12 11 12 14 14 14 16 16 15 15 13 0 1 2 3 8 6 4 3 5 6
11 10 10 10 14 18 20 14 18 15 10 9 9 10 12 12 10 12 11 10 12 12 10 9 10 10 9 8 11 14 18 21 16 14 7 -25 10 -2 11 11 2 6 1
10 9 11 13 16 17 13 13 9 7 7 8 8 8 9 10 9 10 11 12 12 11 10 11 11 12 12 17 20 21 22 29 21 18 16 10 -13 -10 53 -26 39 12 4
9 10 13 16 17 15 12 8 7 7 7 7 7 8 9 8 8 7 10 11 9 9 11 13 14 20 22 17 19 22 23 22 24 25 18 7 -10 -47 16 8 7 24 11
9 14 15 15 15 12 10 8 8 7 7 8 8 8 9 6 6 9 8 7 9 10 12 17 21 11 9 9 19 23 15 21 30 25 30 23 15 14 -9 8 1 30 34
12 14 16 15 12 9 9 8 8 8 8 8 8 7 7 7 7 5 8 7 8 9 9 11 16 17 13 14 15 10 18 16 24 24 22 30 14 19 1 6 10 6 33
15 15 15 14 11 10 9 8 8 8 8 7 7 8 7 7 7 8 6 7 8 8 7 7 4 10 10 13 12 15 6 22 18 18 17 19 27 22 10 6 14 5 45
15 17 13 11 9 8 9 8 9 8 7 8 7 7 7 6 7 7 8 8 8 7 8 7 8 9 7 13 11 0 10 -9 18 12 16 15 24 15 16 6 7 20 36
14 15 12 9 7 6 7 8 9 9 8 8 8 7 6 6 6 6 6 7 8 7 7 7 8 11 12 7 12 12 20 14 13 18 22 82 15 -10 32 19 1 3 8
12 13 10 6 5 5 5 6 7 8 8 8 7 7 6 6 6 5 6 6 7 6 7 7 7 9 12 14 11 14 15 -18 15 5 24 -11 20 -20 -9 19 2 3 4
10 9 7 6 6 5 5 5 6 7 8 8 8 7 7 7 6 6 6 6 6 8 8 4 9 8 7 10 14 11 11 8 7 8 16 -8 -10 9 4 4 10 9 9
9 9 9 7 6 5 5 5 6 6 7 7 7 7 7 7 7 7 6 6 6 6 8 8 6 8 8 7 9 10 11 11 10 8 10 10 7 2 3 -2 2 0 2
8 7 8 8 7 6 5 5 6 6 6 7 7 7 6 7 7 8 7 7 7 7 7 8 7 7 8 9 8 8 8 9 11 11 13 11 9 8 9 9 10 10 7
10 7 7 8 8 7 6 5 6 6 6 6 6 7 7 6 6 7 7 7 7 7 7 8 8 6 7 8 10 9 8 8 8 9 11 12 12 13 13 12 12 12 13
11 9 7 8 8 8 6 6 6 6 6 6 6 6 6 6 7 7 7 7 7 7 7 8 8 8 8 7 8 8 9 9 8 7 7 9 11 11 11 11 12 12 12
11 11 8 8 7 7 8 8 7 7 6 6 6 6 6 6 6 6 7 7 7 7 7 7 9 8 8 8 8 8 8 8 9 9 9 9 9 9 10 11 12 12 11
10 11 10 9 9 7 6 6 6 6 6 6 6 6 6 6 6 6 7 7 6 7 7 8 8 8 8 7 8 8 8 9 9 7 8 9 11 11 12 10 9 8 8
10 11 11 11 10 8 7 6 6 6 6 6 6 6 6 6 6 7 7 7 6 6 7 9 9 9 9 9 8 8 8 8 8 8 8 9 8 9 10 11 12 11 10
9 11 12 10 10 10 10 9 8 7 6 6 6 6 6 7 7 7 8 7 6 6 8 7 8 9 10 8 8 8 8 8 8 8 8 8 9 9 9 9 9 9 9
13 12 9 10 11 11 9 9 8 8 8 8 7 7 7 7 7 7 5 6 6 7 8 8 8 9 9 10 8 8 8 8 8 9 8 8 8 9 9 10 10 9 8
12 11 13 11 11 11 11 9 8 8 8 8 9 9 8 8 8 7 7 7 7 9 8 8 8 9 9 9 9 9 9 8 8 8 8 8 9 9 9 9 9 9 9
12 10 12 12 13 10 8 9 10 11 10 10 9 9 9 9 7 6 5 7 10 14 9 8 10 9 8 9 9 9 9 8 8 8 8 8 8 9 8 9 10 9 8
Height
3158 3155 3152 3148 3145 3142 3138 3134 3131 3128 3125 3124 3122 3120 3119 3117 3116 3114 3113 3112 3112 3112 3112 3112 3113 3113 3113 3114 3114 3115 3115 3116 3116 3116 3116 3117 3117 3118 3118 3118 3118 3118 3119
3152 3149 3145 3141 3137 3133 3130 3126 3123 3121 3119 3117 3115 3113 3111 3110 3108 3106 3105 3104 3104 3103 3102 3102 3102 3103 3104 3105 3106 3107 3107 3107 3108 3109 3110 3110 3111 3112 3112 3113 3114 3114 3115
3146 3142 3138 3133 3130 3126 3123 3119 3117 3115 3113 3111 3109 3107 3105 3103 3101 3099 3098 3097 3096 3096 3096 3095 3095 3095 3095 3096 3096 3097 3098 3099 3100 3101 3102 3103 3103 3104 3106 3107 3108 3109 3110
3139 3135 3131 3127 3124 3120 3116 3113 3111 3108 3107 3105 3103 3102 3100 3098 3096 3094 3093 3092 3091 3091 3090 3088 3087 3087 3087 3086 3087 3087 3088 3090 3091 3092 3093 3094 3095 3097 3098 3100 3102 3104 3105
3132 3129 3125 3122 3118 3113 3110 3107 3105 3103 3101 3100 3099 3098 3096 3094 3092 3090 3089 3088 3087 3086 3084 3083 3081 3079 3078 3077 3075 3074 3075 3076 3079 3081 3083 3084 3086 3088 3089 3091 3093 3097 3099
3126 3123 3119 3116 3112 3108 3104 3103 3101 3100 3099 3098 3097 3095 3093 3091 3088 3087 3085 3084 3082 3081 3078 3076 3074 3072 3071 3068 3065 3062 3061 3061 3063 3067 3071 3069 3074 3075 3077 3082 3085 3088 3090
3121 3117 3114 3110 3107 3104 3101 3099 3098 3098 3097 3095 3094 3092 3090 3087 3085 3083 3081 3080 3079 3076 3072 3069 3067 3064 3061 3059 3054 3050 3049 3047 3048 3051 3056 3060 3063 3063 3055 3065 3072 3077 3079
3116 3113 3109 3106 3103 3101 3099 3098 3096 3095 3095 3093 3092 3090 3088 3086 3082 3080 3079 3077 3074 3071 3067 3064 3060 3056 3053 3050 3047 3043 3039 3037 3036 3038 3042 3046 3050 3047 3053 3048 3060 3066 3069
3111 3107 3105 3102 3100 3099 3098 3096 3095 3093 3092 3091 3090 3089 3086 3084 3079 3077 3076 3074 3072 3068 3065 3060 3056 3052 3048 3044 3041 3037 3033 3029 3027 3028 3032 3037 3041 3049 3049 3052 3055 3059 3060
3106 3103 3101 3098 3097 3096 3095 3094 3093 3091 3089 3088 3087 3086 3085 3083 3079 3076 3072 3071 3069 3064 3060 3057 3053 3048 3044 3040 3035 3033 3029 3027 3024 3023 3025 3029 3034 3040 3046 3050 3052 3054 3052
3102 3099 3097 3096 3095 3094 3093 3091 3090 3089 3087 3086 3084 3084 3083 3081 3078 3075 3072 3069 3064 3061 3059 3056 3052 3047 3041 3037 3033 3031 3028 3024 3021 3021 3021 3023 3028 3034 3040 3044 3046 3047 3047
3099 3097 3095 3093 3092 3092 3091 3090 3088 3085 3084 3083 3082 3081 3080 3078 3076 3073 3071 3067 3063 3059 3056 3053 3049 3045 3041 3037 3033 3030 3026 3023 3022 3018 3017 3019 3024 3028 3033 3035 3041 3041 3043
3097 3095 3093 3091 3090 3089 3088 3088 3086 3084 3083 3081 3080 3078 3076 3074 3072 3070 3067 3065 3061 3057 3054 3051 3047 3043 3040 3037 3033 3028 3024 3022 3022 3019 3016 3017 3018 3023 3026 3029 3034 3037 3039
3094 3092 3090 3089 3088 3086 3085 3084 3083 3082 3081 3079 3077 3076 3074 3071 3069 3066 3063 3060 3058 3054 3051 3049 3046 3042 3038 3034 3032 3028 3023 3022 3022 3021 3013 3006 3008 3007 3017 3023 3032 3035 3038
3091 3090 3088 3087 3086 3084 3082 3081 3080 3079 3078 3076 3074 3073 3071 3068 3066 3064 3061 3058 3055 3053 3050 3047 3045 3041 3037 3034 3031 3028 3024 3022 3021 3020 3020 3017 3019 3022 3022 3024 3029 3031 3035
3087 3086 3085 3083 3082 3081 3079 3078 3076 3075 3074 3073 3071 3070 3067 3065 3064 3061 3058 3055 3052 3049 3047 3045 3042 3039 3036 3033 3030 3027 3025 3021 3019 3018 3019 3019 3021 3023 3024 3024 3026 3029 3031
3083 3081 3080 3079 3078 3077 3075 3074 3073 3071 3071 3070 3068 3066 3064 3062 3060 3057 3055 3052 3049 3046 3044 3042 3039 3036 3034 3031 3028 3026 3023 3021 3019 3016 3014 3015 3016 3018 3019 3021 3023 3024 3024
3077 3076 3075 3074 3074 3073 3072 3071 3069 3068 3067 3065 3064 3062 3060 3058 3055 3053 3050 3048 3044 3042 3040 3038 3035 3032 3030 3028 3026 3023 3021 3019 3017 3016 3015 3014 3014 3014 3014 3015 3016 3017 3018
3071 3070 3069 3068 3068 3067 3066 3065 3064 3063 3062 3060 3059 3057 3055 3053 3051 3049 3046 3043 3040 3037 3035 3033 3031 3029 3026 3024 3022 3020 3018 3017 3015 3013 3011 3009 3009 3009 3010 3010 3010 3010 3011
3064 3063 3061 3061 3060 3060 3060 3059 3058 3057 3056 3055 3053 3051 3050 3048 3046 3044 3041 3038 3036 3033 3030 3027 3026 3024 3022 3020 3018 3016 3014 3012 3011 3009 3008 3006 3004 3003 3003 3002 3003 3004 3004
3056 3055 3054 3053 3053 3052 3052 3051 3050 3050 3049 3048 3046 3045 3043 3042 3040 3037 3035 3033 3030 3027 3024 3022 3020 3018 3016 3014 3012 3010 3009 3008 3006 3004 3003 3002 3000 2999 2998 2997 2996 2996 2996
3049 3047 3046 3045 3044 3044 3043 3042 3042 3041 3041 3039 3038 3036 3035 3034 3032 3030 3028 3026 3024 3021 3018 3016 3014 3012 3010 3008 3006 3005 3003 3002 3001 2999 2997 2997 2995 2994 2993 2993 2992 2991 2991
3041 3040 3039 3037 3036 3035 3034 3033 3032 3032 3032 3031 3030 3028 3026 3025 3023 3022 3020 3018 3016 3014 3011 3008 3006 3005 3003 3001 3000 2998 2997 2996 2994 2993 2991 2990 2989 2988 2986 2986 2985 2985 2984
3033 3032 3030 3028 3027 3027 3026 3024 3022 3021 3022 3021 3020 3018 3017 3015 3014 3012 3010 3009 3007 3005 3003 3000 2998 2997 2995 2994 2992 2991 2989 2988 2988 2987 2985 2984 2982 2980 2979 2979 2978 2977 2977
3025 3023 3022 3020 3018 3017 3015 3014 3012 3011 3011 3011 3010 3009 3007 3007 3006 3002 3000 3000 2998 2996 2993 2990 2989 2988 2986 2985 2984 2983 2982 2981 2980 2979 2977 2976 2975 2973 2972 2971 2970 2970 2969
3017 3014 3012 3010 3009 3008 3006 3005 3003 3001 3001 3000 3000 2998 2997 2996 2994 2991 2988 2988 2988 2987 2982 2981 2981 2979 2978 2977 2975 2974 2973 2972 2972 2971 2970 2969 2967 2966 2965 2964 2963 2962 2962